AXY735 SBPO-SBRJ

Flight info

Callsign AXY735
Flight time 1h 16m
Altitude 39000
Route ILBEK UM548 KOXAG UM400 KOLBI
Aircraft C750/M-SBDE3FGHRWXY/S

Departure

Time 2026-05-05 11:33
Airport Juvenal Loureiro Cardoso Airport (SBPO)

Arrival

Time 2026-05-05 12:49
Airport Santos Dumont Airport (SBRJ)
Time Latitude Longitude Altitude Speed Heading
2026-05-05 11:26 -26.21648 -52.69218 2697 ft 0 kts 134°
2026-05-05 11:29 -26.21648 -52.69217 2697 ft 0 kts 133°
2026-05-05 11:30 -26.21645 -52.69194 2696 ft 8 kts 56°
2026-05-05 11:30 -26.21619 -52.69196 2695 ft 0 kts 324°
2026-05-05 11:30 -26.21614 -52.69200 2694 ft 2 kts 322°
2026-05-05 11:30 -26.21601 -52.69212 2694 ft 3 kts 315°
2026-05-05 11:31 -26.21595 -52.69241 2694 ft 9 kts 263°
2026-05-05 11:31 -26.21638 -52.69327 2697 ft 15 kts 235°
2026-05-05 11:31 -26.21694 -52.69415 2698 ft 15 kts 234°
2026-05-05 11:31 -26.21769 -52.69530 2697 ft 21 kts 234°
2026-05-05 11:32 -26.21862 -52.69674 2699 ft 25 kts 234°
2026-05-05 11:32 -26.21976 -52.69851 2698 ft 31 kts 234°
2026-05-05 11:32 -26.22079 -52.70043 2700 ft 23 kts 248°
2026-05-05 11:32 -26.22117 -52.70074 2700 ft 2 kts 87°
2026-05-05 11:33 -26.22097 -52.70036 2700 ft 6 kts 54°
2026-05-05 11:33 -26.21991 -52.69870 2698 ft 75 kts 54°
2026-05-05 11:33 -26.21497 -52.69098 2793 ft 145 kts 54°
2026-05-05 11:33 -26.20901 -52.68163 3454 ft 155 kts 51°
2026-05-05 11:34 -26.20244 -52.67143 4134 ft 167 kts 50°
2026-05-05 11:34 -26.19553 -52.66060 4911 ft 175 kts 50°
2026-05-05 11:34 -26.18829 -52.64924 5604 ft 188 kts 49°
2026-05-05 11:34 -26.18092 -52.63590 5934 ft 218 kts 59°
2026-05-05 11:35 -26.17363 -52.62005 6262 ft 239 kts 59°
2026-05-05 11:35 -26.16580 -52.60346 6916 ft 249 kts 58°
2026-05-05 11:35 -26.15730 -52.58566 7258 ft 273 kts 59°
2026-05-05 11:35 -26.14807 -52.56620 7699 ft 289 kts 59°
2026-05-05 11:36 -26.13880 -52.54646 8559 ft 289 kts 59°
2026-05-05 11:36 -26.12937 -52.52653 9329 ft 292 kts 59°
2026-05-05 11:36 -26.11980 -52.50640 10033 ft 296 kts 59°
2026-05-05 11:36 -26.11026 -52.48630 10618 ft 300 kts 60°
2026-05-05 11:37 -26.10045 -52.46562 11137 ft 310 kts 60°
2026-05-05 11:37 -26.08990 -52.44344 11363 ft 338 kts 60°
2026-05-05 11:37 -26.07850 -52.41943 11514 ft 363 kts 60°
2026-05-05 11:37 -26.06663 -52.39435 12277 ft 366 kts 61°
2026-05-05 11:38 -26.05470 -52.36921 13036 ft 370 kts 61°
2026-05-05 11:38 -26.04255 -52.34371 13747 ft 375 kts 61°
2026-05-05 11:38 -26.03026 -52.31793 14411 ft 380 kts 62°
2026-05-05 11:38 -26.01778 -52.29168 14998 ft 386 kts 62°
2026-05-05 11:39 -26.00517 -52.26521 15660 ft 389 kts 62°
2026-05-05 11:39 -25.99256 -52.23875 16266 ft 395 kts 62°
2026-05-05 11:39 -25.97961 -52.21161 16885 ft 400 kts 62°
2026-05-05 11:39 -25.96649 -52.18412 17526 ft 406 kts 62°
2026-05-05 11:40 -25.95318 -52.15624 18188 ft 411 kts 62°
2026-05-05 11:40 -25.93963 -52.12790 18807 ft 417 kts 62°
2026-05-05 11:40 -25.92591 -52.09922 19443 ft 421 kts 62°
2026-05-05 11:40 -25.91209 -52.07033 20083 ft 426 kts 62°
2026-05-05 11:41 -25.89805 -52.04101 20737 ft 431 kts 62°
2026-05-05 11:41 -25.88389 -52.01144 21371 ft 436 kts 62°
2026-05-05 11:41 -25.86975 -51.98196 22006 ft 441 kts 61°
2026-05-05 11:41 -25.85526 -51.95176 22649 ft 446 kts 61°
2026-05-05 11:42 -25.84059 -51.92122 23287 ft 451 kts 61°
2026-05-05 11:42 -25.82574 -51.89030 23909 ft 455 kts 61°
2026-05-05 11:42 -25.81074 -51.85912 24447 ft 460 kts 61°
2026-05-05 11:42 -25.79554 -51.82753 24984 ft 464 kts 61°
2026-05-05 11:43 -25.78027 -51.79580 25520 ft 469 kts 61°
2026-05-05 11:43 -25.76484 -51.76378 26061 ft 473 kts 61°
2026-05-05 11:43 -25.74923 -51.73140 26574 ft 477 kts 61°
2026-05-05 11:43 -25.73350 -51.69880 27093 ft 482 kts 61°
2026-05-05 11:44 -25.71758 -51.66584 27599 ft 486 kts 61°
2026-05-05 11:44 -25.70151 -51.63258 28120 ft 491 kts 62°
2026-05-05 11:44 -25.68549 -51.59945 28615 ft 495 kts 62°
2026-05-05 11:44 -25.66918 -51.56575 29111 ft 499 kts 62°
2026-05-05 11:45 -25.65267 -51.53166 29612 ft 503 kts 62°
2026-05-05 11:45 -25.63600 -51.49727 30068 ft 508 kts 62°
2026-05-05 11:45 -25.61920 -51.46261 30489 ft 512 kts 62°
2026-05-05 11:45 -25.60303 -51.42721 30828 ft 516 kts 67°
2026-05-05 11:46 -25.59165 -51.38955 31247 ft 517 kts 77°
2026-05-05 11:46 -25.58540 -51.35041 31861 ft 513 kts 86°
2026-05-05 11:46 -25.58402 -51.31115 32458 ft 509 kts 92°
2026-05-05 11:46 -25.58372 -51.27236 33031 ft 509 kts 92°
2026-05-05 11:47 -25.58327 -51.23318 33607 ft 509 kts 92°
2026-05-05 11:47 -25.58282 -51.19396 34180 ft 509 kts 92°
2026-05-05 11:47 -25.58245 -51.15472 34677 ft 509 kts 92°
2026-05-05 11:47 -25.58208 -51.11546 35186 ft 509 kts 92°
2026-05-05 11:48 -25.58117 -51.03707 36216 ft 509 kts 93°
2026-05-05 11:48 -25.58073 -50.99785 36738 ft 509 kts 93°
2026-05-05 11:48 -25.58027 -50.95857 37266 ft 510 kts 93°
2026-05-05 11:49 -25.57977 -50.91934 37792 ft 510 kts 93°
2026-05-05 11:49 -25.57926 -50.88004 38316 ft 510 kts 94°
2026-05-05 11:49 -25.57876 -50.84124 38867 ft 509 kts 94°
2026-05-05 11:49 -25.57823 -50.80210 39240 ft 511 kts 94°
2026-05-05 11:50 -25.57774 -50.76224 39237 ft 523 kts 94°
2026-05-05 11:50 -25.57721 -50.72138 39245 ft 534 kts 94°
2026-05-05 11:50 -25.57596 -50.63765 39258 ft 553 kts 93°
2026-05-05 11:51 -25.57471 -50.55145 39260 ft 566 kts 93°
2026-05-05 11:51 -25.57331 -50.46385 39263 ft 569 kts 93°
2026-05-05 11:52 -25.57192 -50.37661 39263 ft 569 kts 93°
2026-05-05 11:52 -25.57047 -50.28896 39262 ft 570 kts 93°
2026-05-05 11:53 -25.56896 -50.20113 39259 ft 570 kts 93°
2026-05-05 11:53 -25.56739 -50.11334 39256 ft 569 kts 92°
2026-05-05 11:54 -25.56448 -50.02564 39257 ft 570 kts 91°
2026-05-05 11:54 -25.56174 -49.93851 39256 ft 569 kts 92°
2026-05-05 11:55 -25.55770 -49.85081 39253 ft 570 kts 90°
2026-05-05 11:55 -25.55414 -49.76312 39251 ft 569 kts 91°
2026-05-05 11:56 -25.55029 -49.67553 39253 ft 568 kts 90°
2026-05-05 11:56 -25.54646 -49.58812 39254 ft 568 kts 91°
2026-05-05 11:57 -25.54258 -49.50063 39255 ft 568 kts 90°
2026-05-05 11:57 -25.53861 -49.41329 39257 ft 567 kts 91°
2026-05-05 11:58 -25.53646 -49.32664 39260 ft 567 kts 91°
2026-05-05 11:58 -25.53387 -49.23942 39265 ft 565 kts 92°
2026-05-05 11:59 -25.52984 -49.15232 39253 ft 570 kts 85°
2026-05-05 11:59 -25.51453 -49.06604 39264 ft 571 kts 81°
2026-05-05 12:00 -25.50006 -48.97960 39249 ft 570 kts 83°
2026-05-05 12:00 -25.48528 -48.89315 39233 ft 571 kts 81°
2026-05-05 12:01 -25.47029 -48.80688 39209 ft 570 kts 82°
2026-05-05 12:01 -25.45562 -48.72121 39198 ft 570 kts 81°
2026-05-05 12:02 -25.44053 -48.63522 39192 ft 569 kts 82°
2026-05-05 12:02 -25.42577 -48.54909 39189 ft 570 kts 81°
2026-05-05 12:03 -25.41059 -48.46305 39189 ft 569 kts 82°
2026-05-05 12:03 -25.39565 -48.37709 39191 ft 569 kts 81°
2026-05-05 12:04 -25.38035 -48.29082 39192 ft 571 kts 81°
2026-05-05 12:04 -25.36522 -48.20461 39186 ft 571 kts 81°
2026-05-05 12:05 -25.34990 -48.11838 39183 ft 570 kts 81°
2026-05-05 12:05 -25.33475 -48.03283 39183 ft 570 kts 81°
2026-05-05 12:06 -25.31938 -47.94681 39189 ft 569 kts 81°
2026-05-05 12:06 -25.30668 -47.87535 39186 ft 570 kts 81°
2026-05-05 12:07 -25.29123 -47.78929 39189 ft 570 kts 81°
2026-05-05 12:07 -25.27581 -47.70357 39183 ft 568 kts 81°
2026-05-05 12:08 -25.26032 -47.61779 39186 ft 568 kts 81°
2026-05-05 12:08 -25.24488 -47.53268 39185 ft 568 kts 81°
2026-05-05 12:09 -25.22936 -47.44722 39186 ft 568 kts 81°
2026-05-05 12:09 -25.21371 -47.36168 39190 ft 567 kts 81°
2026-05-05 12:10 -25.19809 -47.27643 39183 ft 566 kts 81°
2026-05-05 12:10 -25.18241 -47.19114 39184 ft 566 kts 81°
2026-05-05 12:11 -25.16669 -47.10603 39192 ft 566 kts 81°
2026-05-05 12:11 -25.15090 -47.02074 39190 ft 566 kts 81°
2026-05-05 12:12 -25.12692 -46.93850 39173 ft 568 kts 66°
2026-05-05 12:12 -25.09023 -46.86119 39189 ft 569 kts 62°
2026-05-05 12:13 -25.05611 -46.78247 39189 ft 569 kts 66°
2026-05-05 12:13 -25.02095 -46.70418 39190 ft 569 kts 63°
2026-05-05 12:14 -24.98595 -46.62587 39192 ft 569 kts 65°
2026-05-05 12:14 -24.95137 -46.54797 39189 ft 569 kts 64°
2026-05-05 12:15 -24.91610 -46.46989 39191 ft 568 kts 65°
2026-05-05 12:15 -24.88132 -46.39166 39192 ft 568 kts 64°
2026-05-05 12:16 -24.84607 -46.31380 39192 ft 567 kts 64°
2026-05-05 12:16 -24.81124 -46.23590 39192 ft 567 kts 64°
2026-05-05 12:17 -24.77596 -46.15803 39177 ft 568 kts 64°
2026-05-05 12:17 -24.74116 -46.08068 39178 ft 567 kts 64°
2026-05-05 12:18 -24.70589 -46.00291 39177 ft 568 kts 64°
2026-05-05 12:18 -24.67073 -45.92518 39177 ft 566 kts 64°
2026-05-05 12:19 -24.63552 -45.84768 39175 ft 566 kts 64°
2026-05-05 12:19 -24.60030 -45.77016 39174 ft 566 kts 64°
2026-05-05 12:20 -24.56510 -45.69292 39174 ft 566 kts 64°
2026-05-05 12:20 -24.52986 -45.61561 39175 ft 566 kts 64°
2026-05-05 12:21 -24.49453 -45.53834 39181 ft 565 kts 64°
2026-05-05 12:21 -24.45946 -45.46168 39179 ft 565 kts 64°
2026-05-05 12:22 -24.42411 -45.38460 39179 ft 565 kts 64°
2026-05-05 12:22 -24.38870 -45.30748 39181 ft 565 kts 64°
2026-05-05 12:23 -24.35330 -45.23053 39182 ft 565 kts 64°
2026-05-05 12:23 -24.31786 -45.15362 39183 ft 565 kts 64°
2026-05-05 12:24 -24.28240 -45.07676 39183 ft 565 kts 64°
2026-05-05 12:24 -24.24689 -44.99996 39181 ft 565 kts 64°
2026-05-05 12:25 -24.21127 -44.92301 39184 ft 565 kts 64°
2026-05-05 12:25 -24.17590 -44.84677 39176 ft 565 kts 64°
2026-05-05 12:26 -24.14028 -44.77009 39193 ft 564 kts 64°
2026-05-05 12:26 -24.10862 -44.69277 38452 ft 538 kts 74°
2026-05-05 12:27 -24.10001 -44.65383 37689 ft 518 kts 82°
2026-05-05 12:27 -24.09501 -44.61542 36937 ft 502 kts 86°
2026-05-05 12:27 -24.09153 -44.57790 36292 ft 489 kts 87°
2026-05-05 12:27 -24.08732 -44.54105 35653 ft 486 kts 83°
2026-05-05 12:28 -24.08106 -44.50465 35013 ft 490 kts 80°
2026-05-05 12:28 -24.07466 -44.46792 34368 ft 492 kts 82°
2026-05-05 12:28 -24.06965 -44.43133 33719 ft 492 kts 84°
2026-05-05 12:28 -24.06488 -44.39419 33068 ft 493 kts 83°
2026-05-05 12:29 -24.05924 -44.35716 32416 ft 494 kts 81°
2026-05-05 12:29 -24.05320 -44.32005 31764 ft 494 kts 82°
2026-05-05 12:29 -24.04767 -44.28287 31107 ft 494 kts 83°
2026-05-05 12:29 -24.04247 -44.24570 30453 ft 493 kts 83°
2026-05-05 12:30 -24.03701 -44.20894 29771 ft 485 kts 82°
2026-05-05 12:30 -24.03137 -44.17278 29135 ft 479 kts 82°
2026-05-05 12:30 -24.02594 -44.13694 28507 ft 474 kts 82°
2026-05-05 12:30 -24.02075 -44.10151 27885 ft 469 kts 83°
2026-05-05 12:31 -24.01529 -44.06659 27258 ft 464 kts 81°
2026-05-05 12:31 -24.00419 -44.03402 26636 ft 463 kts 64°
2026-05-05 12:31 -23.98807 -44.00367 26068 ft 461 kts 60°
2026-05-05 12:31 -23.97135 -43.97396 25465 ft 456 kts 60°
2026-05-05 12:32 -23.95488 -43.94446 24864 ft 452 kts 61°
2026-05-05 12:32 -23.93898 -43.91508 24272 ft 447 kts 62°
2026-05-05 12:32 -23.92322 -43.88600 23666 ft 443 kts 62°
2026-05-05 12:32 -23.90735 -43.85732 23054 ft 438 kts 61°
2026-05-05 12:33 -23.89159 -43.82888 22478 ft 435 kts 61°
2026-05-05 12:33 -23.87614 -43.80071 21905 ft 431 kts 61°
2026-05-05 12:33 -23.86081 -43.77272 21343 ft 427 kts 61°
2026-05-05 12:33 -23.84553 -43.74500 20780 ft 424 kts 60°
2026-05-05 12:34 -23.83033 -43.71750 20228 ft 420 kts 60°
2026-05-05 12:34 -23.81532 -43.69026 19677 ft 417 kts 60°
2026-05-05 12:34 -23.80065 -43.66361 19138 ft 414 kts 60°
2026-05-05 12:34 -23.78583 -43.63676 18595 ft 412 kts 60°
2026-05-05 12:35 -23.77108 -43.61006 18014 ft 407 kts 60°
2026-05-05 12:35 -23.75649 -43.58366 17477 ft 405 kts 60°
2026-05-05 12:35 -23.74202 -43.55752 16946 ft 400 kts 60°
2026-05-05 12:35 -23.72478 -43.53385 16393 ft 398 kts 45°
2026-05-05 12:36 -23.70462 -43.51313 15912 ft 397 kts 44°
2026-05-05 12:36 -23.68461 -43.49277 15389 ft 391 kts 44°
2026-05-05 12:36 -23.66490 -43.47218 14867 ft 390 kts 45°
2026-05-05 12:36 -23.64551 -43.45180 14357 ft 384 kts 45°
2026-05-05 12:37 -23.62645 -43.43205 13834 ft 383 kts 45°
2026-05-05 12:37 -23.60707 -43.41210 13319 ft 381 kts 45°
2026-05-05 12:37 -23.58795 -43.39226 12816 ft 378 kts 45°
2026-05-05 12:37 -23.56884 -43.37239 12319 ft 380 kts 45°
2026-05-05 12:38 -23.54994 -43.35279 11822 ft 371 kts 44°
2026-05-05 12:38 -23.53123 -43.33346 11329 ft 365 kts 44°
2026-05-05 12:38 -23.51338 -43.31497 10862 ft 342 kts 44°
2026-05-05 12:38 -23.49666 -43.29763 10424 ft 323 kts 44°
2026-05-05 12:39 -23.48071 -43.28113 10001 ft 312 kts 44°
2026-05-05 12:39 -23.46508 -43.26497 9580 ft 307 kts 44°
2026-05-05 12:39 -23.44991 -43.24928 9185 ft 303 kts 44°
2026-05-05 12:39 -23.43464 -43.23350 8789 ft 303 kts 44°
2026-05-05 12:40 -23.41940 -43.21776 8392 ft 301 kts 44°
2026-05-05 12:40 -23.40403 -43.20240 7983 ft 297 kts 40°
2026-05-05 12:40 -23.38537 -43.19308 7548 ft 296 kts 14°
2026-05-05 12:40 -23.36543 -43.18839 7212 ft 292 kts 11°
2026-05-05 12:41 -23.34554 -43.18383 6845 ft 291 kts 12°
2026-05-05 12:41 -23.32578 -43.17909 6446 ft 289 kts 12°
2026-05-05 12:41 -23.30627 -43.17438 6055 ft 287 kts 12°
2026-05-05 12:41 -23.28685 -43.16976 5675 ft 284 kts 12°
2026-05-05 12:42 -23.26763 -43.16520 5298 ft 280 kts 12°
2026-05-05 12:42 -23.24857 -43.16067 4922 ft 279 kts 12°
2026-05-05 12:42 -23.22968 -43.15617 4548 ft 276 kts 11°
2026-05-05 12:42 -23.21132 -43.15180 4187 ft 271 kts 11°
2026-05-05 12:43 -23.19338 -43.14625 4012 ft 262 kts 19°
2026-05-05 12:43 -23.17584 -43.13979 3953 ft 267 kts 17°
2026-05-05 12:43 -23.15805 -43.13369 3776 ft 269 kts 17°
2026-05-05 12:43 -23.14025 -43.12735 3555 ft 268 kts 17°
2026-05-05 12:44 -23.12265 -43.12091 3334 ft 265 kts 17°
2026-05-05 12:44 -23.10551 -43.11469 3099 ft 251 kts 17°
2026-05-05 12:44 -23.08907 -43.11112 2810 ft 234 kts 357°
2026-05-05 12:44 -23.07372 -43.11353 2646 ft 216 kts 349°
2026-05-05 12:45 -23.05960 -43.11583 2459 ft 194 kts 351°
2026-05-05 12:45 -23.04698 -43.11777 2315 ft 174 kts 351°
2026-05-05 12:45 -23.03563 -43.11958 2161 ft 157 kts 351°
2026-05-05 12:45 -23.02517 -43.12127 2031 ft 147 kts 351°
2026-05-05 12:46 -23.01545 -43.12283 2016 ft 137 kts 351°
2026-05-05 12:46 -23.00602 -43.12434 2017 ft 136 kts 351°
2026-05-05 12:46 -22.99660 -43.12586 1988 ft 138 kts 351°
2026-05-05 12:46 -22.98718 -43.12737 1980 ft 140 kts 351°
2026-05-05 12:47 -22.97752 -43.12892 1881 ft 136 kts 351°
2026-05-05 12:47 -22.96874 -43.13032 1644 ft 123 kts 351°
2026-05-05 12:47 -22.96028 -43.13192 1338 ft 123 kts 345°
2026-05-05 12:47 -22.95316 -43.13712 944 ft 127 kts 314°
2026-05-05 12:48 -22.94832 -43.14506 691 ft 121 kts 305°
2026-05-05 12:48 -22.94368 -43.15258 591 ft 120 kts 306°
2026-05-05 12:48 -22.93805 -43.15927 424 ft 121 kts 329°
2026-05-05 12:48 -22.93020 -43.16162 286 ft 117 kts 357°
2026-05-05 12:49 -22.92203 -43.16200 163 ft 118 kts 356°
2026-05-05 12:49 -22.91386 -43.16258 28 ft 115 kts 356°
2026-05-05 12:49 -22.90708 -43.16306 23 ft 67 kts 356°
2026-05-05 12:49 -22.90507 -43.16336 21 ft 13 kts 310°
2026-05-05 12:50 -22.90494 -43.16375 20 ft 3 kts 280°
2026-05-05 12:50 -22.90493 -43.16409 20 ft 6 kts 267°
2026-05-05 12:50 -22.90496 -43.16471 19 ft 10 kts 266°
2026-05-05 12:50 -22.90501 -43.16535 19 ft 8 kts 261°
2026-05-05 12:51 -22.90506 -43.16548 20 ft 0 kts 239°
2026-05-05 12:51 -22.90507 -43.16550 20 ft 1 kts 234°
2026-05-05 12:51 -22.90537 -43.16554 19 ft 5 kts 171°
2026-05-05 12:51 -22.90567 -43.16550 20 ft 4 kts 178°
2026-05-05 12:52 -22.90596 -43.16552 19 ft 4 kts 184°
2026-05-05 12:52 -22.90625 -43.16554 20 ft 4 kts 184°
2026-05-05 12:52 -22.90655 -43.16552 20 ft 4 kts 173°
2026-05-05 12:52 -22.90687 -43.16548 19 ft 6 kts 173°
2026-05-05 12:53 -22.90752 -43.16542 19 ft 14 kts 176°
2026-05-05 12:53 -22.90850 -43.16551 21 ft 14 kts 178°
2026-05-05 12:53 -22.90942 -43.16544 20 ft 12 kts 176°
2026-05-05 12:53 -22.90999 -43.16540 19 ft 12 kts 176°
2026-05-05 12:54 -22.91050 -43.16599 20 ft 0 kts 265°